Meteo Giornale » Osservazioni meteo Austria » Vienna-Schwechat

ore: 16:50 - Osservazioni Meteo Vienna-Schwechat
Lat. 48° 7' N Lon. 16° 34' E Alt. 183 metri s.l.m.

sereno Europe/Vienna

-1 °C

Sereno

Temp. 24 Ore

-8 °C

1 °C

Sud-Est

33.3 Km/h

Dew point -8 °C

Umidità 58 %

Visibilità  10 Km

Il sole sorge alle ore 07:30

Il sole tramonta alle ore 16:40

Data e Ora Cielo e Fenomeni T °C DP °C Um. % Pres. hPa Vis. km Vento km/h
Oggi h: 16:50 sereno Sereno -1 -8 58 1030 10 SE 33.3
Oggi h: 16:20 sereno Sereno -1 -7 63 1030 10 SE 35.2
Oggi h: 15:50 sereno Sereno -0 -7 59 1030 10 SE 33.3
Oggi h: 15:20 sereno Sereno 0 -7 59 1030 10 SE 33.3
Oggi h: 14:50 sereno Sereno 0 -7 59 1030 10 SE 33.3
Oggi h: 14:20 sereno Sereno 1 -7 55 1030 10 SE 29.6
Oggi h: 13:50 sereno Sereno 0 -7 59 1030 10 SE 31.5
Oggi h: 13:20 sereno Sereno 0 -6 63 1031 10 SE 37
Oggi h: 12:50 sereno Sereno -0 -6 63 1031 9 SE 37
Oggi h: 12:20 sereno Sereno -0 -6 63 1031 8 SE 33.3
Oggi h: 11:50 sereno Sereno -1 -6 68 1031 8 SE 33.3
Oggi h: 11:20 sereno Sereno -2 -6 73 1032 8 E/SE 25.9
Oggi h: 10:50 sereno Sereno -3 -7 73 1032 6 E/SE 27.8
Oggi h: 10:20 sereno Gelata -4 -7 79 1032 5 E/SE 20.3
Oggi h: 09:50 sereno Gelata -5 -7 85 1032 5 E/SE 22.2
Oggi h: 09:20 sereno Gelata -6 -8 85 1033 5 E/SE 13
Oggi h: 08:50 sereno Gelata -6 -8 85 1033 5 SE 13
Oggi h: 08:20 sereno Gelata -7 -8 92 1032 5 S/SE 14.8
Oggi h: 07:50 sereno Gelata -7 -9 85 1032 5 S/SE 16.7
Oggi h: 07:20 sereno Gelata -8 -9 92 1032 5 SE 13
Oggi h: 06:50 sereno Gelata -8 -9 92 1033 5 SE 13
Oggi h: 06:20 sereno Gelata -8 -9 92 1033 5 E/SE 13
Oggi h: 05:50 sereno Gelata -8 -9 92 1032 5 E/SE 14.8
Oggi h: 05:20 sereno Gelata -8 -9 92 1032 5 E/SE 20.3
Oggi h: 04:50 sereno Sereno -7 -9 85 1032 6 E/SE 18.5
Oggi h: 04:20 sereno Sereno -7 -9 85 1032 6 SE 20.3
Oggi h: 03:50 sereno Sereno -7 -9 85 1033 6 SE 18.5
Oggi h: 03:20 sereno Sereno -7 -9 85 1032 7 SE 20.3
Oggi h: 02:50 sereno Sereno -7 -9 85 1032 6 E/SE 16.7
Oggi h: 02:20 sereno Sereno -6 -8 85 1032 6 E/SE 13
Oggi h: 01:50 sereno Sereno -6 -9 79 1033 7 E/SE 14.8
Oggi h: 01:20 sereno Sereno -6 -8 85 1032 7 E 13
Oggi h: 00:50 sereno Sereno -6 -8 85 1033 7 E 13
Oggi h: 00:20 sereno Sereno -6 -8 85 1033 7 E/SE 16.7
Ieri h: 23:50 sereno Sereno -5 -8 79 1033 7 E/SE 18.5
Ieri h: 23:20 sereno Sereno -5 -8 79 1033 7 E/SE 16.7
Ieri h: 22:50 sereno Sereno -5 -8 79 1033 7 E/SE 18.5
Ieri h: 22:20 sereno Sereno -5 -8 79 1033 8 E/SE 14.8
Ieri h: 21:50 sereno Gelata -7 -9 85 1033 5 E/SE 7.4
Ieri h: 21:20 sereno Gelata -7 -9 85 1033 5 N 3.7
Ieri h: 20:50 sereno Gelata -8 -10 85 1032 5 N 5.5
Ieri h: 20:20 sereno Gelata -8 -10 85 1032 4 S/SE 9.3
Ieri h: 19:50 sereno Gelata -7 -8 92 1032 5 N 5.5
Ieri h: 19:20 sereno Sereno -6 -8 85 1033 6 E 7.4
Ieri h: 18:50 sereno Sereno -7 -9 85 1032 7 SE 7.4
Ieri h: 18:20 sereno Sereno -6 -8 85 1032 7 S/SE 7.4
Ieri h: 17:50 sereno Sereno -5 -8 79 1032 8 N 5.5
Ieri h: 17:20 sereno Sereno -5 -8 79 1032 8 N 5.5
Ieri h: 16:50 sereno Sereno -5 -8 79 1032 6 N 3.7